| time (UTC) | temp F | wind direction | speed MPH | gust MPH | rain 1hr in | rain 24hr in | rain mn in | humidity % | barometer mb |
| 20260906154332 | 81 | 52 | 2.0 | 5.0 | 0.00 | 0.00 | 0.00 | 85 | 1018.3 |
| 20260906153830 | 80 | 87 | 1.0 | 8.0 | 0.00 | 0.00 | 0.00 | 88 | 1018.6 |
| 20260906153324 | 80 | 185 | 2.0 | 7.0 | 0.00 | 0.00 | 0.00 | 88 | 1018.4 |
| 20260906152820 | 80 | 56 | 0.0 | 2.0 | 0.00 | 0.00 | 0.00 | 89 | 1018.6 |
| 20260906152315 | 79 | 198 | 4.0 | 6.0 | 0.00 | 0.00 | 0.00 | 89 | 1018.6 |
| 20260906151814 | 78 | 281 | 2.0 | 6.0 | 0.00 | 0.00 | 0.00 | 90 | 1018.6 |
| 20260906151310 | 78 | 177 | 5.0 | 7.0 | 0.00 | 0.00 | 0.00 | 91 | 1018.7 |
| 20260906150805 | 79 | 250 | 2.0 | 5.0 | 0.00 | 0.00 | 0.00 | 90 | 1018.6 |
| 20260906150301 | 78 | 201 | 1.0 | 5.0 | 0.00 | 0.00 | 0.00 | 91 | 1018.5 |
| 20260906145759 | 78 | 50 | 3.0 | 5.0 | 0.00 | 0.00 | 0.00 | 90 | 1018.7 |
| 20260906145258 | 78 | 299 | 1.0 | 5.0 | 0.00 | 0.00 | 0.00 | 91 | 1018.7 |
| 20260906144753 | 78 | 197 | 5.0 | 7.0 | 0.00 | 0.00 | 0.00 | 91 | 1018.7 |
| 20260906144248 | 78 | 123 | 3.0 | 3.0 | 0.00 | 0.00 | 0.00 | 91 | 1018.6 |
| 20260906143748 | 78 | 243 | 2.0 | 10.0 | 0.00 | 0.00 | 0.00 | 91 | 1018.6 |
| 20260906143245 | 80 | 106 | 2.0 | 6.0 | 0.00 | 0.00 | 0.00 | 88 | 1018.7 |
| 20260906142744 | 79 | 172 | 2.0 | 7.0 | 0.00 | 0.00 | 0.00 | 89 | 1018.7 |
| 20260906142240 | 78 | 171 | 8.0 | 10.0 | 0.00 | 0.00 | 0.00 | 90 | 1018.8 |
| 20260906141738 | 78 | 158 | 2.0 | 7.0 | 0.00 | 0.00 | 0.00 | 91 | 1018.8 |
| 20260906141233 | 77 | 214 | 2.0 | 6.0 | 0.00 | 0.00 | 0.00 | 92 | 1018.7 |
| 20260906140732 | 77 | 176 | 3.0 | 9.0 | 0.00 | 0.00 | 0.00 | 93 | 1018.8 |
| 20260906140228 | 77 | 175 | 1.0 | 9.0 | 0.00 | 0.00 | 0.00 | 93 | 1018.6 |
| 20260906135724 | 76 | 142 | 4.0 | 7.0 | 0.00 | 0.00 | 0.00 | 94 | 1018.7 |
| 20260906135221 | 76 | 141 | 5.0 | 6.0 | 0.00 | 0.00 | 0.00 | 94 | 1018.7 |
| 20260906134716 | 75 | 222 | 2.0 | 6.0 | 0.00 | 0.00 | 0.00 | 96 | 1018.8 |
| 20260906134211 | 75 | 162 | 6.0 | 6.0 | 0.00 | 0.00 | 0.00 | 97 | 1018.8 |
| 20260906133707 | 74 | 172 | 3.0 | 5.0 | 0.00 | 0.00 | 0.00 | 97 | 1018.7 |
| 20260906133202 | 75 | 304 | 2.0 | 7.0 | 0.00 | 0.00 | 0.00 | 97 | 1018.7 |
| 20260906132657 | 74 | 164 | 2.0 | 3.0 | 0.00 | 0.00 | 0.00 | 98 | 1018.6 |
| 20260906132152 | 74 | 218 | 1.0 | 5.0 | 0.00 | 0.00 | 0.00 | 98 | 1018.5 |
| 20260906131647 | 74 | 201 | 1.0 | 5.0 | 0.00 | 0.00 | 0.00 | 98 | 1018.7 |
| 20260906131137 | 74 | 306 | 0.0 | 3.0 | 0.00 | 0.00 | 0.00 | 98 | 1018.7 |
| 20260906130632 | 74 | 134 | 1.0 | 2.0 | 0.00 | 0.00 | 0.00 | 98 | 1018.9 |
| 20260906130127 | 74 | 214 | 3.0 | 3.0 | 0.00 | 0.00 | 0.00 | 98 | 1018.6 |
| 20260906125624 | 74 | 223 | 2.0 | 5.0 | 0.00 | 0.00 | 0.00 | 99 | 1018.8 |
| 20260906125118 | 73 | 182 | 3.0 | 5.0 | 0.00 | 0.00 | 0.00 | 99 | 1018.6 |
| 20260906124614 | 73 | 194 | 2.0 | 6.0 | 0.00 | 0.00 | 0.00 | 99 | 1018.6 |
| 20260906124109 | 73 | 247 | 1.0 | 2.0 | 0.00 | 0.00 | 0.00 | 99 | 1018.4 |
| 20260906123608 | 73 | 301 | 0.0 | 2.0 | 0.00 | 0.00 | 0.00 | 99 | 1018.4 |
| 20260906123103 | 73 | 313 | 0.0 | 1.0 | 0.00 | 0.00 | 0.00 | 99 | 1018.2 |
| 20260906122603 | 73 | 241 | 0.0 | 5.0 | 0.00 | 0.00 | 0.00 | 99 | 1018.0 |
| 20260906122058 | 73 | 189 | 3.0 | 5.0 | 0.00 | 0.00 | 0.00 | 99 | 1017.9 |
| 20260906121554 | 73 | 256 | 1.0 | 2.0 | 0.00 | 0.00 | 0.00 | 99 | 1018.0 |
| 20260906121051 | 73 | 186 | 4.0 | 6.0 | 0.00 | 0.00 | 0.00 | 99 | 1017.9 |
| 20260906120546 | 73 | 290 | 0.0 | 3.0 | 0.00 | 0.00 | 0.00 | 99 | 1017.9 |
| 20260906120043 | 72 | 203 | 1.0 | 2.0 | 0.00 | 0.00 | 0.00 | 99 | 1017.9 |
| 20260906115542 | 72 | 242 | 1.0 | 2.0 | 0.00 | 0.00 | 0.00 | 99 | 1017.8 |
| 20260906115038 | 72 | 85 | 2.0 | 7.0 | 0.00 | 0.00 | 0.00 | 99 | 1017.5 |
| 20260906114532 | 72 | 221 | 1.0 | 5.0 | 0.00 | 0.00 | 0.00 | 99 | 1017.6 |
| 20260906114028 | 72 | 193 | 3.0 | 5.0 | 0.00 | 0.00 | 0.00 | 99 | 1017.3 |
| 20260906113527 | 73 | 263 | 1.0 | 3.0 | 0.00 | 0.00 | 0.00 | 99 | 1017.3 |
| 20260906113022 | 73 | 248 | 1.0 | 6.0 | 0.00 | 0.00 | 0.00 | 99 | 1017.5 |
| 20260906112517 | 73 | 98 | 4.0 | 7.0 | 0.00 | 0.00 | 0.00 | 99 | 1017.3 |
| 20260906112013 | 73 | 231 | 1.0 | 5.0 | 0.00 | 0.00 | 0.00 | 99 | 1017.2 |
| 20260906111507 | 73 | 91 | 2.0 | 3.0 | 0.00 | 0.00 | 0.00 | 99 | 1017.2 |
| 20260906111002 | 73 | 225 | 1.0 | 6.0 | 0.00 | 0.00 | 0.00 | 99 | 1017.3 |
| 20260906110456 | 73 | 263 | 2.0 | 3.0 | 0.00 | 0.00 | 0.00 | 99 | 1017.5 |
| 20260906105955 | 73 | 12 | 1.0 | 5.0 | 0.00 | 0.00 | 0.00 | 99 | 1017.3 |
| 20260906105452 | 73 | 71 | 3.0 | 6.0 | 0.00 | 0.00 | 0.00 | 99 | 1017.6 |
| 20260906104948 | 73 | 280 | 0.0 | 3.0 | 0.00 | 0.00 | 0.00 | 99 | 1017.6 |
| 20260906104446 | 73 | 94 | 3.0 | 7.0 | 0.00 | 0.00 | 0.00 | 99 | 1017.5 |
| 20260906103945 | 73 | 61 | 3.0 | 5.0 | 0.00 | 0.00 | 0.00 | 99 | 1017.5 |
| 20260906103444 | 73 | 100 | 3.0 | 3.0 | 0.00 | 0.00 | 0.00 | 99 | 1017.6 |
| 20260906102939 | 73 | 79 | 0.0 | 3.0 | 0.00 | 0.00 | 0.00 | 99 | 1017.5 |
| 20260906102439 | 73 | 334 | 1.0 | 3.0 | 0.00 | 0.00 | 0.00 | 99 | 1017.5 |
| 20260906101933 | 73 | 98 | 4.0 | 5.0 | 0.00 | 0.00 | 0.00 | 99 | 1017.6 |
| 20260906101428 | 73 | 12 | 0.0 | 5.0 | 0.00 | 0.00 | 0.00 | 99 | 1017.5 |
| 20260906100923 | 73 | 321 | 0.0 | 2.0 | 0.00 | 0.00 | 0.00 | 99 | 1017.5 |
| 20260906100418 | 73 | 64 | 1.0 | 2.0 | 0.00 | 0.00 | 0.00 | 99 | 1017.3 |
| 20260906095912 | 74 | 72 | 3.0 | 5.0 | 0.00 | 0.00 | 0.00 | 99 | 1017.6 |
| 20260906095408 | 74 | 169 | 2.0 | 6.0 | 0.00 | 0.00 | 0.00 | 99 | 1017.2 |
| 20260906094902 | 74 | 310 | 0.0 | 3.0 | 0.00 | 0.00 | 0.00 | 99 | 1017.5 |
| 20260906094356 | 74 | 91 | 1.0 | 3.0 | 0.00 | 0.00 | 0.00 | 99 | 1017.5 |
| 20260906093847 | 74 | 135 | 1.0 | 5.0 | 0.00 | 0.00 | 0.00 | 99 | 1017.5 |
| 20260906093343 | 74 | 97 | 3.0 | 6.0 | 0.00 | 0.00 | 0.00 | 99 | 1017.5 |
| 20260906092843 | 74 | 28 | 1.0 | 5.0 | 0.00 | 0.00 | 0.00 | 99 | 1017.5 |
| 20260906092337 | 74 | 264 | 1.0 | 5.0 | 0.00 | 0.00 | 0.00 | 99 | 1017.3 |
| 20260906091833 | 74 | 102 | 4.0 | 5.0 | 0.00 | 0.00 | 0.00 | 98 | 1017.0 |
| 20260906091329 | 74 | 92 | 3.0 | 7.0 | 0.00 | 0.00 | 0.00 | 98 | 1017.1 |
| 20260906090826 | 75 | 262 | 0.0 | 3.0 | 0.00 | 0.00 | 0.00 | 99 | 1017.1 |
| 20260906090325 | 75 | 136 | 2.0 | 5.0 | 0.00 | 0.00 | 0.00 | 98 | 1016.9 |
| 20260906085824 | 75 | 65 | 5.0 | 8.0 | 0.00 | 0.00 | 0.00 | 98 | 1016.9 |
| 20260906085318 | 75 | 72 | 1.0 | 7.0 | 0.00 | 0.00 | 0.00 | 98 | 1016.7 |
| 20260906084813 | 75 | 160 | 6.0 | 7.0 | 0.00 | 0.00 | 0.00 | 98 | 1016.8 |
| 20260906084312 | 75 | 246 | 1.0 | 5.0 | 0.00 | 0.00 | 0.00 | 98 | 1016.7 |
| 20260906083807 | 75 | 196 | 3.0 | 3.0 | 0.00 | 0.00 | 0.00 | 98 | 1016.8 |
| 20260906083303 | 75 | 176 | 1.0 | 5.0 | 0.00 | 0.00 | 0.00 | 99 | 1016.7 |
| 20260906082757 | 75 | 79 | 5.0 | 7.0 | 0.00 | 0.00 | 0.00 | 98 | 1016.5 |
| 20260906082252 | 75 | 84 | 4.0 | 6.0 | 0.00 | 0.00 | 0.00 | 98 | 1016.6 |
| 20260906081748 | 75 | 120 | 3.0 | 6.0 | 0.00 | 0.00 | 0.00 | 98 | 1016.7 |
| 20260906081243 | 75 | 142 | 1.0 | 6.0 | 0.00 | 0.00 | 0.00 | 98 | 1016.7 |
| 20260906080739 | 75 | 81 | 1.0 | 7.0 | 0.00 | 0.00 | 0.00 | 99 | 1016.8 |
| 20260906080236 | 75 | 54 | 3.0 | 9.0 | 0.00 | 0.00 | 0.00 | 99 | 1016.8 |
| 20260906075729 | 75 | 45 | 2.0 | 5.0 | 0.00 | 0.00 | 0.00 | 99 | 1016.7 |
| 20260906075224 | 75 | 138 | 3.0 | 5.0 | 0.00 | 0.00 | 0.00 | 99 | 1016.5 |
| 20260906074719 | 75 | 106 | 3.0 | 6.0 | 0.00 | 0.00 | 0.00 | 99 | 1016.5 |
| 20260906074218 | 76 | 4 | 3.0 | 6.0 | 0.00 | 0.00 | 0.00 | 99 | 1016.5 |
| 20260906073714 | 76 | 97 | 2.0 | 6.0 | 0.00 | 0.00 | 0.00 | 99 | 1016.8 |
| 20260906073209 | 76 | 6 | 0.0 | 5.0 | 0.00 | 0.00 | 0.00 | 98 | 1016.7 |
| 20260906072704 | 76 | 49 | 1.0 | 7.0 | 0.00 | 0.00 | 0.00 | 98 | 1016.7 |
| 20260906072159 | 76 | 55 | 1.0 | 5.0 | 0.00 | 0.00 | 0.00 | 98 | 1016.7 |
| 20260906071656 | 76 | 108 | 2.0 | 5.0 | 0.00 | 0.00 | 0.00 | 98 | 1016.6 |
| 20260906071155 | 77 | 72 | 2.0 | 3.0 | 0.00 | 0.00 | 0.00 | 98 | 1016.5 |
| 20260906070652 | 77 | 202 | 3.0 | 6.0 | 0.00 | 0.00 | 0.00 | 98 | 1016.7 |
| 20260906070147 | 77 | 163 | 4.0 | 7.0 | 0.00 | 0.00 | 0.00 | 98 | 1016.4 |
| 20260906065647 | 77 | 228 | 0.0 | 3.0 | 0.00 | 0.00 | 0.00 | 98 | 1016.7 |
| 20260906065142 | 77 | 166 | 2.0 | 3.0 | 0.00 | 0.00 | 0.00 | 98 | 1016.8 |
| 20260906064637 | 77 | 104 | 4.0 | 6.0 | 0.00 | 0.00 | 0.00 | 98 | 1016.6 |
| 20260906064132 | 77 | 47 | 5.0 | 8.0 | 0.00 | 0.00 | 0.00 | 98 | 1016.6 |
| 20260906063627 | 77 | 113 | 7.0 | 9.0 | 0.00 | 0.00 | 0.00 | 99 | 1016.6 |
| 20260906063118 | 77 | 353 | 0.0 | 6.0 | 0.00 | 0.00 | 0.00 | 99 | 1016.7 |
| 20260906062614 | 77 | 79 | 2.0 | 7.0 | 0.00 | 0.00 | 0.00 | 99 | 1016.6 |
| 20260906062112 | 77 | 85 | 0.0 | 5.0 | 0.00 | 0.00 | 0.00 | 99 | 1016.8 |
| 20260906061609 | 78 | 70 | 2.0 | 5.0 | 0.00 | 0.00 | 0.00 | 99 | 1016.9 |
| 20260906061108 | 78 | 308 | 0.0 | 2.0 | 0.00 | 0.00 | 0.00 | 99 | 1016.8 |
| 20260906060605 | 78 | 132 | 4.0 | 5.0 | 0.00 | 0.00 | 0.00 | 99 | 1016.7 |
| 20260906055557 | 78 | 80 | 2.0 | 6.0 | 0.00 | 0.00 | 0.00 | 98 | 1016.8 |
| 20260906055052 | 78 | 302 | 0.0 | 3.0 | 0.00 | 0.00 | 0.00 | 98 | 1016.9 |
| 20260906054547 | 78 | 229 | 2.0 | 3.0 | 0.00 | 0.00 | 0.00 | 98 | 1016.9 |
| 20260906054042 | 78 | 103 | 2.0 | 3.0 | 0.00 | 0.00 | 0.00 | 98 | 1016.6 |
| 20260906053538 | 79 | 74 | 5.0 | 6.0 | 0.00 | 0.00 | 0.00 | 98 | 1016.7 |
| 20260906053034 | 79 | 20 | 1.0 | 6.0 | 0.00 | 0.00 | 0.00 | 98 | 1016.9 |
| 20260906052529 | 79 | 97 | 3.0 | 7.0 | 0.00 | 0.00 | 0.00 | 98 | 1017.0 |
| 20260906052026 | 79 | 89 | 2.0 | 9.0 | 0.00 | 0.00 | 0.00 | 97 | 1016.8 |
| 20260906051521 | 79 | 79 | 3.0 | 8.0 | 0.00 | 0.00 | 0.00 | 97 | 1016.8 |
| 20260906051017 | 79 | 53 | 2.0 | 6.0 | 0.00 | 0.00 | 0.00 | 97 | 1016.5 |
| 20260906050512 | 80 | 76 | 3.0 | 3.0 | 0.00 | 0.00 | 0.00 | 97 | 1016.6 |
| 20260906050006 | 79 | 95 | 1.0 | 7.0 | 0.00 | 0.00 | 0.00 | 97 | 1016.6 |
| 20260906045505 | 79 | 78 | 3.0 | 5.0 | 0.00 | 0.00 | 0.00 | 97 | 1016.6 |
| 20260906045001 | 78 | 72 | 3.0 | 3.0 | 0.00 | 0.00 | 0.00 | 98 | 1016.6 |
| 20260906044455 | 78 | 123 | 3.0 | 3.0 | 0.00 | 0.00 | 0.00 | 98 | 1016.6 |
| 20260906043951 | 78 | 7 | 1.0 | 3.0 | 0.00 | 0.00 | 0.00 | 98 | 1016.7 |
| 20260906043447 | 78 | 351 | 0.0 | 1.0 | 0.00 | 0.00 | 0.00 | 98 | 1016.5 |
| 20260906042943 | 78 | 351 | 0.0 | 0.0 | 0.00 | 0.00 | 0.00 | 98 | 1016.6 |
| 20260906042442 | 78 | 50 | 1.0 | 1.0 | 0.00 | 0.00 | 0.00 | 98 | 1016.5 |
| 20260906041936 | 78 | 14 | 1.0 | 2.0 | 0.00 | 0.00 | 0.00 | 98 | 1016.4 |
| 20260906041432 | 78 | 349 | 0.0 | 1.0 | 0.00 | 0.00 | 0.00 | 98 | 1016.3 |
| 20260906040926 | 79 | 349 | 0.0 | 0.0 | 0.00 | 0.00 | 0.00 | 97 | 1016.3 |
| 20260906040422 | 79 | 349 | 0.0 | 1.0 | 0.00 | 0.00 | 0.00 | 97 | 1016.3 |
| 20260906035917 | 79 | 358 | 1.0 | 1.0 | 0.00 | 0.00 | 0.00 | 97 | 1016.2 |
| 20260906035412 | 79 | 354 | 1.0 | 1.0 | 0.00 | 0.00 | 0.00 | 97 | 1016.2 |
| 20260906034908 | 79 | 332 | 0.0 | 0.0 | 0.00 | 0.00 | 0.00 | 97 | 1016.2 |
| 20260906034402 | 79 | 343 | 0.0 | 1.0 | 0.00 | 0.00 | 0.00 | 97 | 1016.4 |
| 20260906033858 | 79 | 352 | 0.0 | 1.0 | 0.00 | 0.00 | 0.00 | 97 | 1016.1 |
| 20260906033357 | 79 | 351 | 0.0 | 0.0 | 0.00 | 0.00 | 0.00 | 97 | 1016.2 |
| 20260906032853 | 79 | 351 | 0.0 | 0.0 | 0.00 | 0.00 | 0.00 | 96 | 1016.3 |
| 20260906032349 | 80 | 351 | 0.0 | 0.0 | 0.00 | 0.00 | 0.00 | 96 | 1016.2 |
| 20260906031844 | 80 | 351 | 0.0 | 0.0 | 0.00 | 0.00 | 0.00 | 95 | 1016.1 |
| 20260906031339 | 80 | 351 | 0.0 | 0.0 | 0.00 | 0.00 | 0.00 | 95 | 1016.3 |
| 20260906030839 | 80 | 352 | 0.0 | 1.0 | 0.00 | 0.00 | 0.00 | 95 | 1015.9 |
| 20260906030335 | 80 | 353 | 0.0 | 0.0 | 0.00 | 0.00 | 0.00 | 95 | 1016.0 |
| 20260906025829 | 80 | 352 | 0.0 | 0.0 | 0.00 | 0.00 | 0.00 | 95 | 1016.1 |
| 20260906025323 | 80 | 352 | 0.0 | 0.0 | 0.00 | 0.00 | 0.00 | 94 | 1015.9 |
| 20260906024822 | 81 | 353 | 0.0 | 1.0 | 0.00 | 0.00 | 0.00 | 94 | 1015.9 |
| 20260906024321 | 81 | 351 | 0.0 | 0.0 | 0.00 | 0.00 | 0.00 | 94 | 1015.8 |
| 20260906023817 | 81 | 344 | 0.0 | 0.0 | 0.00 | 0.00 | 0.00 | 93 | 1015.8 |
| 20260906023312 | 81 | 342 | 0.0 | 0.0 | 0.00 | 0.00 | 0.00 | 93 | 1015.7 |
| 20260906022808 | 81 | 342 | 0.0 | 5.0 | 0.00 | 0.00 | 0.00 | 92 | 1015.4 |
| 20260906022306 | 81 | 349 | 0.0 | 1.0 | 0.00 | 0.00 | 0.00 | 92 | 1015.4 |
| 20260906021759 | 81 | 351 | 0.0 | 2.0 | 0.00 | 0.00 | 0.00 | 92 | 1015.5 |
| 20260906021258 | 82 | 7 | 0.0 | 3.0 | 0.00 | 0.00 | 0.00 | 92 | 1015.5 |
| 20260906020752 | 82 | 79 | 2.0 | 2.0 | 0.00 | 0.00 | 0.00 | 92 | 1015.3 |
| 20260906020246 | 82 | 35 | 1.0 | 2.0 | 0.00 | 0.00 | 0.00 | 92 | 1015.3 |
| 20260906015741 | 82 | 351 | 0.0 | 2.0 | 0.00 | 0.00 | 0.00 | 92 | 1015.2 |
| 20260906015239 | 82 | 342 | 0.0 | 1.0 | 0.00 | 0.00 | 0.00 | 92 | 1015.1 |
| 20260906014734 | 82 | 345 | 0.0 | 1.0 | 0.00 | 0.00 | 0.00 | 92 | 1015.1 |
| 20260906014230 | 82 | 64 | 1.0 | 2.0 | 0.00 | 0.00 | 0.00 | 91 | 1014.9 |
| 20260906013721 | 82 | 301 | 0.0 | 2.0 | 0.00 | 0.00 | 0.00 | 91 | 1014.8 |
| 20260906013221 | 82 | 318 | 0.0 | 1.0 | 0.00 | 0.00 | 0.00 | 91 | 1014.9 |
| 20260906012715 | 82 | 337 | 0.0 | 1.0 | 0.00 | 0.00 | 0.00 | 91 | 1014.9 |
| 20260906012210 | 83 | 335 | 0.0 | 0.0 | 0.00 | 0.00 | 0.00 | 91 | 1014.8 |
| 20260906011705 | 83 | 335 | 0.0 | 2.0 | 0.00 | 0.00 | 0.00 | 90 | 1014.8 |
| 20260906011200 | 83 | 353 | 1.0 | 1.0 | 0.00 | 0.00 | 0.00 | 90 | 1014.8 |
| 20260906010655 | 83 | 26 | 1.0 | 2.0 | 0.00 | 0.00 | 0.00 | 90 | 1014.8 |
| 20260906010152 | 83 | 344 | 0.0 | 1.0 | 0.00 | 0.00 | 0.00 | 90 | 1014.8 |
| 20260906005651 | 84 | 339 | 0.0 | 1.0 | 0.00 | 0.00 | 0.00 | 89 | 1014.7 |
| 20260906005151 | 84 | 351 | 0.0 | 1.0 | 0.00 | 0.00 | 0.00 | 89 | 1014.7 |
| 20260906004649 | 84 | 349 | 0.0 | 0.0 | 0.00 | 0.00 | 0.00 | 88 | 1014.8 |
| 20260906004144 | 85 | 349 | 0.0 | 0.0 | 0.00 | 0.00 | 0.00 | 88 | 1014.6 |
| 20260906003640 | 85 | 348 | 0.0 | 1.0 | 0.00 | 0.00 | 0.00 | 86 | 1014.6 |
| 20260906003136 | 85 | 80 | 2.0 | 2.0 | 0.00 | 0.00 | 0.00 | 85 | 1014.5 |
| 20260906002630 | 86 | 357 | 0.0 | 3.0 | 0.00 | 0.00 | 0.00 | 85 | 1014.5 |
| 20260906002119 | 86 | 352 | 1.0 | 2.0 | 0.00 | 0.00 | 0.00 | 84 | 1014.7 |
| 20260906001615 | 86 | 356 | 1.0 | 3.0 | 0.00 | 0.00 | 0.00 | 83 | 1014.6 |
| 20260906001114 | 87 | 348 | 1.0 | 2.0 | 0.00 | 0.00 | 0.00 | 82 | 1014.4 |
| 20260906000611 | 87 | 43 | 2.0 | 3.0 | 0.00 | 0.00 | 0.00 | 81 | 1014.6 |
| 20260906000106 | 87 | 40 | 3.0 | 6.0 | 0.00 | 0.00 | 0.00 | 81 | 1014.6 |
| 20260905235605 | 87 | 85 | 3.0 | 6.0 | 0.00 | 0.00 | 0.00 | 80 | 1014.5 |
| 20260905235100 | 88 | 80 | 4.0 | 7.0 | 0.00 | 0.00 | 0.00 | 79 | 1014.5 |
| 20260905234555 | 88 | 111 | 5.0 | 6.0 | 0.00 | 0.00 | 0.00 | 78 | 1014.6 |
| 20260905234050 | 88 | 41 | 3.0 | 8.0 | 0.00 | 0.00 | 0.00 | 79 | 1014.5 |
| 20260905233544 | 88 | 23 | 2.0 | 6.0 | 0.00 | 0.00 | 0.00 | 79 | 1014.6 |
| 20260905233045 | 89 | 87 | 3.0 | 5.0 | 0.00 | 0.00 | 0.00 | 79 | 1014.5 |
| 20260905232540 | 89 | 29 | 0.0 | 3.0 | 0.00 | 0.00 | 0.00 | 79 | 1014.5 |
| 20260905232035 | 89 | 26 | 1.0 | 3.0 | 0.00 | 0.00 | 0.00 | 77 | 1014.4 |
| 20260905231531 | 89 | 58 | 3.0 | 6.0 | 0.00 | 0.00 | 0.00 | 76 | 1014.5 |
| 20260905231027 | 90 | 337 | 0.0 | 3.0 | 0.00 | 0.00 | 0.00 | 77 | 1014.4 |
| 20260905230526 | 90 | 34 | 3.0 | 5.0 | 0.00 | 0.00 | 0.00 | 77 | 1014.6 |
| 20260905230025 | 91 | 356 | 1.0 | 1.0 | 0.00 | 0.00 | 0.00 | 76 | 1014.6 |
| 20260905225519 | 90 | 332 | 2.0 | 6.0 | 0.00 | 0.00 | 0.00 | 76 | 1014.5 |
| 20260905225015 | 90 | 24 | 2.0 | 7.0 | 0.00 | 0.00 | 0.00 | 76 | 1014.5 |
| 20260905224509 | 90 | 344 | 1.0 | 3.0 | 0.00 | 0.00 | 0.00 | 78 | 1014.5 |
| 20260905224009 | 90 | 334 | 0.0 | 3.0 | 0.00 | 0.00 | 0.00 | 77 | 1014.5 |
| 20260905223507 | 90 | 4 | 2.0 | 6.0 | 0.00 | 0.00 | 0.00 | 77 | 1014.2 |
| 20260905223001 | 90 | 343 | 3.0 | 7.0 | 0.00 | 0.00 | 0.00 | 76 | 1014.4 |
| 20260905222456 | 91 | 43 | 2.0 | 6.0 | 0.00 | 0.00 | 0.00 | 76 | 1014.5 |
| 20260905221951 | 92 | 18 | 2.0 | 3.0 | 0.00 | 0.00 | 0.00 | 75 | 1014.3 |
| 20260905221448 | 91 | 28 | 1.0 | 5.0 | 0.00 | 0.00 | 0.00 | 75 | 1014.4 |
| 20260905220944 | 91 | 102 | 4.0 | 6.0 | 0.00 | 0.00 | 0.00 | 75 | 1014.5 |
| 20260905220440 | 91 | 40 | 3.0 | 5.0 | 0.00 | 0.00 | 0.00 | 75 | 1014.4 |
| 20260905215938 | 91 | 97 | 2.0 | 2.0 | 0.00 | 0.00 | 0.00 | 74 | 1014.4 |
| 20260905215434 | 92 | 236 | 1.0 | 6.0 | 0.00 | 0.00 | 0.00 | 73 | 1014.6 |
| 20260905214930 | 91 | 336 | 1.0 | 3.0 | 0.00 | 0.00 | 0.00 | 77 | 1014.4 |
| 20260905214425 | 91 | 297 | 1.0 | 3.0 | 0.00 | 0.00 | 0.00 | 75 | 1014.4 |
| 20260905213920 | 91 | 327 | 1.0 | 5.0 | 0.00 | 0.00 | 0.00 | 74 | 1014.2 |
| 20260905213416 | 91 | 47 | 3.0 | 5.0 | 0.00 | 0.00 | 0.00 | 74 | 1014.3 |
| 20260905212912 | 91 | 328 | 1.0 | 7.0 | 0.00 | 0.00 | 0.00 | 75 | 1014.5 |
| 20260905212406 | 91 | 322 | 1.0 | 6.0 | 0.00 | 0.00 | 0.00 | 77 | 1014.6 |
| 20260905211905 | 91 | 338 | 1.0 | 3.0 | 0.00 | 0.00 | 0.00 | 76 | 1014.5 |
| 20260905211401 | 91 | 139 | 2.0 | 5.0 | 0.00 | 0.00 | 0.00 | 76 | 1014.5 |
| 20260905210857 | 91 | 320 | 2.0 | 3.0 | 0.00 | 0.00 | 0.00 | 78 | 1014.1 |
| 20260905210356 | 90 | 48 | 1.0 | 2.0 | 0.00 | 0.00 | 0.00 | 75 | 1014.4 |
| 20260905205856 | 90 | 14 | 2.0 | 5.0 | 0.00 | 0.00 | 0.00 | 77 | 1014.4 |
| 20260905205350 | 90 | 61 | 2.0 | 3.0 | 0.00 | 0.00 | 0.00 | 75 | 1014.5 |
| 20260905204844 | 91 | 327 | 1.0 | 3.0 | 0.00 | 0.00 | 0.00 | 76 | 1014.4 |
| 20260905204340 | 91 | 267 | 1.0 | 5.0 | 0.00 | 0.00 | 0.00 | 73 | 1014.5 |
| 20260905203833 | 92 | 2 | 4.0 | 7.0 | 0.00 | 0.00 | 0.00 | 71 | 1014.5 |
| 20260905203330 | 94 | 48 | 4.0 | 8.0 | 0.00 | 0.00 | 0.00 | 69 | 1014.6 |
| 20260905202825 | 93 | 314 | 0.0 | 3.0 | 0.00 | 0.00 | 0.00 | 70 | 1014.6 |
| 20260905202319 | 94 | 23 | 2.0 | 5.0 | 0.00 | 0.00 | 0.00 | 69 | 1014.6 |
| 20260905201815 | 93 | 284 | 2.0 | 2.0 | 0.00 | 0.00 | 0.00 | 68 | 1014.6 |
| 20260905201311 | 92 | 329 | 0.0 | 6.0 | 0.00 | 0.00 | 0.00 | 71 | 1014.6 |
| 20260905200805 | 92 | 344 | 3.0 | 6.0 | 0.00 | 0.00 | 0.00 | 72 | 1014.7 |
| 20260905200301 | 93 | 351 | 2.0 | 6.0 | 0.00 | 0.00 | 0.00 | 71 | 1014.8 |
| 20260905195759 | 93 | 350 | 6.0 | 8.0 | 0.00 | 0.00 | 0.00 | 70 | 1014.9 |
| 20260905195254 | 93 | 317 | 2.0 | 5.0 | 0.00 | 0.00 | 0.00 | 69 | 1014.9 |
| 20260905194749 | 93 | 93 | 5.0 | 8.0 | 0.00 | 0.00 | 0.00 | 69 | 1015.0 |
| 20260905194248 | 93 | 37 | 4.0 | 7.0 | 0.00 | 0.00 | 0.00 | 69 | 1015.2 |
| 20260905193743 | 92 | 60 | 2.0 | 5.0 | 0.00 | 0.00 | 0.00 | 69 | 1015.4 |
| 20260905193237 | 92 | 15 | 7.0 | 8.0 | 0.00 | 0.00 | 0.00 | 71 | 1015.5 |
| 20260905192727 | 93 | 6 | 4.0 | 7.0 | 0.00 | 0.00 | 0.00 | 72 | 1015.3 |
| 20260905192224 | 91 | 62 | 1.0 | 5.0 | 0.00 | 0.00 | 0.00 | 72 | 1015.4 |
| 20260905191723 | 92 | 350 | 4.0 | 9.0 | 0.00 | 0.00 | 0.00 | 71 | 1015.7 |
| 20260905191221 | 91 | 308 | 4.0 | 9.0 | 0.00 | 0.00 | 0.00 | 73 | 1015.7 |
| 20260905190720 | 91 | 10 | 6.0 | 9.0 | 0.00 | 0.00 | 0.00 | 69 | 1015.6 |
| 20260905190219 | 91 | 11 | 7.0 | 8.0 | 0.00 | 0.00 | 0.00 | 69 | 1015.9 |
| 20260905185718 | 91 | 7 | 5.0 | 6.0 | 0.00 | 0.00 | 0.00 | 67 | 1016.0 |
| 20260905185213 | 91 | 338 | 6.0 | 7.0 | 0.00 | 0.00 | 0.00 | 69 | 1015.9 |
| 20260905184713 | 91 | 16 | 3.0 | 6.0 | 0.00 | 0.00 | 0.00 | 71 | 1016.0 |
| 20260905184212 | 91 | 12 | 2.0 | 7.0 | 0.00 | 0.00 | 0.00 | 71 | 1016.0 |
| 20260905183706 | 91 | 352 | 3.0 | 7.0 | 0.00 | 0.00 | 0.00 | 72 | 1016.1 |
| 20260905183202 | 92 | 19 | 4.0 | 6.0 | 0.00 | 0.00 | 0.00 | 71 | 1016.1 |
| 20260905182700 | 90 | 1 | 2.0 | 9.0 | 0.00 | 0.00 | 0.00 | 72 | 1016.0 |
| 20260905182154 | 91 | 325 | 2.0 | 6.0 | 0.00 | 0.00 | 0.00 | 70 | 1016.0 |
| 20260905181650 | 92 | 333 | 3.0 | 9.0 | 0.00 | 0.00 | 0.00 | 69 | 1016.2 |
| 20260905181143 | 92 | 4 | 4.0 | 6.0 | 0.00 | 0.00 | 0.00 | 68 | 1016.2 |
| 20260905180638 | 92 | 6 | 3.0 | 5.0 | 0.00 | 0.00 | 0.00 | 67 | 1016.1 |
| 20260905180133 | 91 | 357 | 4.0 | 8.0 | 0.00 | 0.00 | 0.00 | 67 | 1016.0 |
| 20260905175632 | 91 | 352 | 5.0 | 6.0 | 0.00 | 0.00 | 0.00 | 69 | 1016.4 |
| 20260905175128 | 92 | 18 | 4.0 | 6.0 | 0.00 | 0.00 | 0.00 | 67 | 1016.3 |
| 20260905174624 | 93 | 20 | 3.0 | 5.0 | 0.00 | 0.00 | 0.00 | 64 | 1016.2 |
| 20260905174118 | 94 | 334 | 3.0 | 5.0 | 0.00 | 0.00 | 0.00 | 65 | 1016.2 |
| 20260905173615 | 92 | 303 | 0.0 | 3.0 | 0.00 | 0.00 | 0.00 | 66 | 1016.3 |
| 20260905173110 | 92 | 312 | 0.0 | 3.0 | 0.00 | 0.00 | 0.00 | 67 | 1016.3 |
| 20260905172608 | 93 | 297 | 3.0 | 3.0 | 0.00 | 0.00 | 0.00 | 67 | 1016.2 |
| 20260905172103 | 92 | 293 | 2.0 | 3.0 | 0.00 | 0.00 | 0.00 | 66 | 1016.3 |
| 20260905171600 | 90 | 336 | 1.0 | 3.0 | 0.00 | 0.00 | 0.00 | 69 | 1016.3 |
| 20260905171056 | 91 | 286 | 2.0 | 2.0 | 0.00 | 0.00 | 0.00 | 69 | 1016.2 |
| 20260905170552 | 91 | 313 | 0.0 | 0.0 | 0.00 | 0.00 | 0.00 | 71 | 1016.3 |
| 20260905170047 | 90 | 327 | 1.0 | 3.0 | 0.00 | 0.00 | 0.00 | 71 | 1016.0 |
| 20260905165542 | 90 | 358 | 3.0 | 3.0 | 0.00 | 0.00 | 0.00 | 72 | 1016.1 |
| 20260905165032 | 89 | 339 | 2.0 | 6.0 | 0.00 | 0.00 | 0.00 | 71 | 1016.0 |
| 20260905164532 | 90 | 9 | 5.0 | 7.0 | 0.00 | 0.00 | 0.00 | 71 | 1016.3 |
| 20260905164027 | 91 | 308 | 3.0 | 3.0 | 0.00 | 0.00 | 0.00 | 71 | 1016.4 |
| 20260905163523 | 90 | 301 | 1.0 | 1.0 | 0.00 | 0.00 | 0.00 | 72 | 1016.3 |
| 20260905163018 | 89 | 357 | 2.0 | 3.0 | 0.00 | 0.00 | 0.00 | 74 | 1016.4 |
| 20260905162514 | 89 | 286 | 2.0 | 3.0 | 0.00 | 0.00 | 0.00 | 73 | 1016.2 |
| 20260905162008 | 88 | 310 | 2.0 | 5.0 | 0.00 | 0.00 | 0.00 | 76 | 1016.6 |
| 20260905161503 | 88 | 318 | 2.0 | 3.0 | 0.00 | 0.00 | 0.00 | 75 | 1016.3 |
| 20260905161000 | 88 | 290 | 2.0 | 3.0 | 0.00 | 0.00 | 0.00 | 75 | 1016.6 |
| 20260905160454 | 87 | 307 | 2.0 | 5.0 | 0.00 | 0.00 | 0.00 | 79 | 1016.5 |
| 20260905155953 | 87 | 322 | 3.0 | 5.0 | 0.00 | 0.00 | 0.00 | 78 | 1016.4 |
| 20260905155448 | 87 | 318 | 2.0 | 2.0 | 0.00 | 0.00 | 0.00 | 78 | 1016.4 |
| 20260905154947 | 86 | 303 | 1.0 | 2.0 | 0.00 | 0.00 | 0.00 | 81 | 1016.2 |